Zurück zum Katalog

CZ-4B DEB

AktivSSO
NORAD 28438·DEBRIS·🇨🇳 China

Gestartet May 15, 2002 von Taiyuan Satellite Launch Center

Loading…

Nächste Überflüge (nächste 24 Stunden)

TLE

AktuellSource: Space-Track

Epoche: Sep 14, 2026, 00:24 UTC

1 28438U 02024E   26257.01687132  .00002368  00000-0  62274-3 0  9996
2 28438  98.6376 279.9133 0015448 198.5128 161.5505 14.49992395267144

Verfolge CZ-4B DEB in Echtzeit mit AllMySat

Download on the App Store